Location: Praha
(50.0830°N, 14.4670°E)
Time: 12:44:31
(UTC+02:00)

ISS - Pass Details

Date: 22 September 2021
Orbit: 419 x 423 km, 51.6° (Epoch: 21 September)

Event Time Altitude Azimuth Distance (km) Brightness Sun altitude
Rises 20:57:03 0° 266° (W) 2,364 1.1 -19.1°
Reaches altitude 10° 20:59:10 10° 269° (W) 1,501 0.0 -19.4°
Maximum altitude 21:02:31 68° 353° (N) 456 -3.6 -19.9°
Enters shadow 21:02:48 64° 29° (NNE) 471 -3.6 -19.9°
